COSMOS 1375 DEB, 17805

Orbit data source: Space-Track

COSMOS 1375 DEB, 17805 is space debris in LEO originally from a launch on Sun, 06 Jun 1982 UTC launched from the Plesetsk Missile And Space Complex (PKMTR). Debris objects in space refer to the collection of defunct objects orbiting the Earth. Examples of debris include non-operational satellites, rocket bodies, and fragments generated from explosions, collisions, or faulty payload assembly.

Loading next visibility...
Identifier
17805, 1982-055AX
Orbit
LEO
Country
Flag of CISCIS
Related business
Manufacturer
Unknown
Mission
Spacecraft
Bus & Motor
Unknown
Mass
Unknown
Launch date (UTC)
1982-06-06 (44 years ago)
Launch vehicle
Unknown
Launch site
Plesetsk Missile And Space Complex (PKMTR)
Object type
Payload
Rocket body
Debris
Shape & HBR
Unknown shape, 0.1 m
Radar Cross Section
Medium (>0.1 m² and <1 m²)

Expand to show TLE details & history
Last TLE update: 2 days ago

TLE from 2 days ago
0 COSMOS 1375 DEB
1 17805U 82055AX  26171.40105544  .00000904  00000-0  61604-3 0  9994
2 17805  65.8203 289.5059 0023701 250.4374 171.0976 14.04786008 59185
Epoch: 2026-06-20T09:37Z
TLE epoch observation values (Epoch: 2026-06-20T09:37:31.190Z)
Latitude
53.46909°
Longitude
-86.41121°
Altitude
902.098 km
Speed
7.398 km/s
True Right ascension
21h 46m 20s
True Declination
53° 18' 28"
Sunlit
Object was in daylight at epoch
Visualization orbit readout
Latitude
Unknown
Longitude
Unknown
Altitude
Unknown
Speed
Unknown
Apparent Right ascension
Unknown
Apparent Declination
Unknown
Sunlit
N/A
Visualization observer readout
Local Sidereal Time
03:41:47
Azimuth
Unknown
Elevation
Unknown
Doppler factor
Unknown
Orbital elements
Apogee altitude
892.959 km
Perigee altitude
858.574 km
Semi-major axis
7,253.903 km
Eccentricity
0.00237
Inclination
65.8203°
RAAN
289.5059°
Arg. of periapsis
250.4374°
True anomaly
171.13951°
Mean anomaly
171.0976°
Eccentric anomaly
171.11857°
Mean motion
3.51306 °/min
Orbital period
102.47 mins
BSTAR
0.00061604
Loading maneuver chart data...
Computing Atmospheric mass density...
Loading historical data...
Loading historical data...
Loading historical data...
Loading historical data...
Loading historical data...
Loading historical data...
Loading historical data...

Documentation

Showing up to 5 results
|